Station 41009 (LLNR 840) - CANAVERAL 20 NM East of Cape Canaveral, FL Image indicating link to RSS feed of recent meteorological observations for station 41009


Conditions at 41009 as of
(2:40 am EDT)
0640 GMT on 04/15/2024:
     

Click on the graph icon in the table below to see a time series plot of the last five days of that observation.

5-day plot - Wind Direction Wind Direction (WDIR): S ( 170 deg true )
5-day plot - Wind Speed Wind Speed (WSPD): 7.8 kts
5-day plot - Wind Gust Wind Gust (GST): 9.7 kts
5-day plot - Atmospheric Pressure Atmospheric Pressure (PRES):30.10 in
5-day plot - Air Temperature Air Temperature (ATMP): 71.8 °F
5-day plot - Water Temperature Water Temperature (WTMP): 72.5 °F
5-day plot - Dew Point Dew Point (DEWP): 60.3 °F
5-day plot - Wind Speed at 10 Meters Wind Speed at 10 meters (WSPD10M): 7.8 kts
5-day plot - Wind Speed at 20 Meters Wind Speed at 20 meters (WSPD20M): 9.7 kts
5-day plot -  Wind Speed, Wind Gust and Atmospheric Pressure Combined plot of Wind Speed, Gust, and Air Pressure
Supplemental Measurements
Highest 1-minute Wind Speed
Time (EDT)5-day plot - 1-Minute Wind Speed WSPD 5-day plot - 1-Minute Wind Direction WDIR
2:39 am 7.8 kts-
Previous observations
TIME
(EDT)
5-day plot - Wind Direction
WDIR
 
5-day plot - Wind Speed
WSPD
kts
5-day plot - Wind Gust
GST
kts
5-day plot - Wave Height
WVHT
ft
5-day plot - Dominant Wave Period
DPD
sec
5-day plot - Average Wave Period
APD
sec
5-day plot - Mean Wave Direction
MWD
 
5-day plot - Atmospheric Pressure
PRES
in
5-day plot - Pressure Tendency
PTDY
in
5-day plot - Air Temperature
ATMP
°F
5-day plot - Water Temperature
WTMP
°F
5-day plot - Dew Point
DEWP
°F
5-day plot - Salinity
SAL
psu
5-day plot - Visibility
VIS
nmi
5-day plot - Tide (above MLLW)
TIDE
ft
2024-04-15 02:30 am S 7.8 9.7----30.10- 72.0 72.5 59.4---
2024-04-15 02:20 am S 7.8 9.7 2.0 95.0 E30.11- 72.1 72.5 59.2---
2024-04-15 02:10 am S 7.8 9.7 2.0-5.0 E30.11- 72.1 72.5 59.5---
2024-04-15 02:00 am S 7.8 9.7----30.12-0.02 72.3 72.5 59.4---
2024-04-15 01:50 amSSE 9.7 11.7 2.0-4.9ENE30.11-------
2024-04-15 01:40 amSSE 9.7 11.7----30.12- 72.3 72.7 58.6---
2024-04-15 01:30 amSSE 9.7 11.7----30.13- 72.3 72.7 58.8---
2024-04-15 01:20 amSSE 9.7 11.7 2.0 84.8 E30.13- 72.3 72.9 58.5---
2024-04-15 01:10 amSSE 9.7 11.7 2.0-4.8 E30.14- 72.3 72.9 58.8---
2024-04-15 01:00 amSSE 9.7 11.7----30.14+0.00 72.3 72.9 58.5---
2024-04-15 12:50 amSSE 9.7 11.7 2.0 84.8 E30.14- 72.5 73.0 59.0---
2024-04-15 12:40 amSSE 9.7 11.7----30.14- 72.5 73.0 58.8---
2024-04-15 12:30 amSSE 9.7 11.7----30.14- 72.5 73.0 58.5---
2024-04-15 12:20 am SE 9.7 11.7 2.0 125.0ENE30.14- 72.5 72.9 58.5---
2024-04-15 12:10 am SE 9.7 13.6 2.0-5.0ENE30.14- 72.5 72.5 58.8---
2024-04-15 12:00 am SE 9.7 11.7----30.14+0.00 72.3 72.0 58.5---
2024-04-14 11:50 pm SE 9.7 11.7 2.0 84.8 E30.15- 72.3 72.0 59.4---
2024-04-14 11:40 pm SE 9.7 11.7----30.14- 72.3 72.0 59.0---
2024-04-14 11:30 pm SE 9.7 11.7----30.14- 72.3 72.0 59.4---
2024-04-14 11:20 pm SE 9.7 11.7 2.0 85.4ENE30.14- 72.1 72.0 59.0---
2024-04-14 11:10 pm SE 9.7 11.7 2.0-5.4ENE30.14- 72.3 72.0 59.5---
2024-04-14 11:00 pm SE 9.7 11.7----30.14+0.00 72.3 72.0 59.0---
2024-04-14 10:50 pm SE 9.7 11.7 2.3 125.7ENE30.14- 72.3 72.0 58.6---
2024-04-14 10:40 pm SE 9.7 11.7----30.14- 72.3 72.0 58.8---
2024-04-14 10:30 pm SE 9.7 9.7----30.14- 72.3 72.0 58.6---
2024-04-14 10:20 pmSSE 9.7 11.7 2.3-5.6ESE30.13-------
2024-04-14 10:10 pmSSE 7.8 11.7 2.3-5.6ESE30.14- 72.0 72.0 59.9---
2024-04-14 10:00 pmSSE 7.8 9.7----30.14+0.00 72.0 72.0 60.6---
2024-04-14 09:50 pmSSE 7.8 9.7 2.3 85.4 E30.14- 71.8 72.1 60.1---
2024-04-14 09:40 pmSSE 7.8 7.8----30.14- 71.8 72.1 60.8---
2024-04-14 09:30 pmSSE 7.8 7.8----30.14- 71.8 72.1 60.1---
2024-04-14 09:20 pmSSE 7.8 7.8 2.3 75.4 E30.15- 71.8 72.1 60.1---
2024-04-14 09:10 pmSSE 5.8 7.8 2.3-5.4 E30.14- 71.8 72.1 60.6---
2024-04-14 09:00 pmSSE 5.8 7.8----30.14+0.00 71.6 72.1 60.6---
2024-04-14 08:50 pmSSE 5.8 7.8 2.3 65.3 NE30.14- 71.6 72.1 60.4---
2024-04-14 08:40 pmSSE 5.8 7.8----30.14- 71.6 72.1 60.3---
2024-04-14 08:30 pmSSE 5.8 5.8----30.14- 71.6 72.1 60.1---
2024-04-14 08:20 pmSSE 5.8 5.8 2.3 85.5 E30.14- 71.6 72.3 60.1---
2024-04-14 08:10 pmSSE 5.8 5.8 2.3-5.5 E30.14- 71.6 72.3 59.7---
2024-04-14 08:00 pmSSE 3.9 5.8----30.14-0.02 71.6 72.5 59.4---
2024-04-14 07:50 pmSSE 3.9 5.8 2.6 85.6 E30.14- 71.6 72.5 59.5---
2024-04-14 07:40 pmSSE 3.9 5.8----30.13- 71.6 72.5 59.4---
2024-04-14 07:10 pmSSE 3.9 5.8 2.3-5.8 E30.14- 71.8 72.3 57.9---
2024-04-14 07:00 pmSSE 3.9 3.9----30.14-0.03 72.0 72.3 57.4---
2024-04-14 06:50 pmSSE 1.9 3.9 2.3 85.6 E30.14- 72.0 72.5 57.2---
2024-04-14 06:40 pmSSE 1.9 1.9 2.3-5.6 E30.14- 72.1 72.3 57.0---
2024-04-14 06:30 pm S 1.9 1.9----30.14- 72.1 72.3 55.9---
2024-04-14 06:20 pm S 1.9 1.9 2.6 75.9ENE30.14- 72.1 72.3 55.8---
2024-04-14 06:10 pmSSE 1.9 1.9 2.6-5.9ENE30.14- 72.3 72.5 56.5---
2024-04-14 06:00 pm- 0.0 1.9----30.14-0.04 73.4 72.5 56.7---
2024-04-14 05:50 pm- 0.0 1.9 2.6 135.9 E30.15- 73.9 72.5 57.0---
2024-04-14 05:40 pm- 0.0 0.0----30.15- 73.8 72.5 56.7---
2024-04-14 05:30 pm- 0.0 1.9----30.15- 73.2 72.5 56.7---
2024-04-14 05:20 pmWNW 1.9 1.9 2.6 66.0 NE30.16- 72.7 72.5 56.8---
2024-04-14 05:10 pmWNW 1.9 3.9 2.6-6.0 NE30.16- 72.7 72.5 56.7---
2024-04-14 05:00 pmWNW 1.9 3.9----30.16-0.04 72.7 72.5 56.1---
2024-04-14 04:50 pmWNW 1.9 1.9 2.6 65.9 NE30.16- 72.5 72.5 55.9---
2024-04-14 04:40 pmWNW 1.9 1.9 2.6-5.9 NE30.16- 72.3 72.3 56.1---
2024-04-14 04:30 pmWNW 1.9 3.9----30.16- 72.3 72.5 56.8---
2024-04-14 04:20 pmWNW 1.9 1.9 2.6 76.1 NE30.16- 72.3 72.5 57.6---
2024-04-14 04:10 pm- 0.0 1.9 2.6-6.1 NE30.16- 72.0 72.5 56.8---
2024-04-14 04:00 pm NW 1.9 1.9----30.16-0.06 71.8 72.5 57.0---
2024-04-14 03:50 pm NW 1.9 1.9 2.6 76.1 NE30.17- 71.4 72.5 57.2---
2024-04-14 03:40 pm NW 1.9 1.9----30.17- 71.1 72.5 57.6---
2024-04-14 03:30 pmNNW 1.9 3.9----30.17- 71.1 72.5 57.7---
2024-04-14 03:20 pmNNW 1.9 3.9 2.6 86.0 NE30.17- 70.7 72.5 56.7---
2024-04-14 03:10 pmNNW 3.9 3.9 2.6-6.0 NE30.18- 70.5 72.5 57.6---
2024-04-14 03:00 pm NW 3.9 3.9----30.18-0.06 70.3 72.5 57.6---
2024-04-14 02:50 pm NW 3.9 3.9 2.3 75.9ENE30.19- 70.2 72.5 57.4---
2024-04-14 02:40 pm NW 3.9 5.8----30.19- 70.0 72.5 56.8---
2024-04-14 02:30 pm NW 3.9 5.8----30.19- 69.8 72.5 57.0---
2024-04-14 02:20 pm NW 3.9 5.8 2.3 75.8 NE30.19- 69.8 72.5 57.0---
2024-04-14 02:10 pm NW 3.9 5.8 2.3-5.8 NE30.19- 69.6 72.5 56.7---
2024-04-14 02:00 pm NW 3.9 5.8----30.20-0.04 69.6 72.5 56.5---
2024-04-14 01:50 pm NW 3.9 5.8 2.3 85.8ENE30.20- 69.4 72.5 56.5---
2024-04-14 01:40 pmNNW 3.9 5.8----30.20- 69.3 72.5 56.5---
2024-04-14 01:30 pmNNW 3.9 5.8----30.21- 69.1 72.5 55.6---
2024-04-14 01:20 pm NW 3.9 5.8 2.3 75.9 NE30.21- 68.9 72.7 55.8---
2024-04-14 01:10 pm NW 3.9 5.8 2.3-5.9 NE30.22- 68.9 72.9 56.3---
2024-04-14 01:00 pm NW 3.9 5.8----30.22-0.02 68.7 73.2 55.6---
2024-04-14 12:50 pm NW 5.8 5.8 2.6 76.1 N30.23- 68.7 73.2 55.2---
2024-04-14 12:40 pm NW 3.9 5.8----30.23- 68.5 73.2 55.4---
2024-04-14 12:30 pm NW 5.8 7.8----30.23- 68.4 72.9 54.9---
2024-04-14 12:20 pmWNW 5.8 5.8 2.3 75.6 NE30.24- 68.4 72.5 55.0---
2024-04-14 12:10 pm NW 5.8 5.8 2.3-5.6 NE30.24- 68.2 72.3 54.5---
2024-04-14 12:00 pmWNW 5.8 5.8----30.24+0.01 68.2 72.1 54.9---
2024-04-14 11:50 amWNW 5.8 7.8 2.3 125.6ENE30.24- 68.0 72.1 54.7---
2024-04-14 11:40 amWNW 5.8 7.8----30.24- 68.0 72.0 54.5---
2024-04-14 11:30 amWNW 5.8 7.8----30.24- 68.0 72.0 54.1---
2024-04-14 11:20 amWNW 5.8 7.8 2.3 75.6ENE30.25- 68.0 72.0 54.3---
2024-04-14 11:10 am NW 5.8 7.8 2.3-5.6ENE30.25- 68.0 72.0 53.1---
2024-04-14 11:00 amWNW 5.8 7.8----30.24+0.03 68.0 71.8 52.9---
2024-04-14 10:50 am NW 5.8 7.8 2.6 85.9ENE30.25- 68.0 71.8 53.2---
2024-04-14 10:40 amWNW 5.8 7.8----30.24- 68.2 71.8 52.5---
2024-04-14 10:30 amWNW 5.8 7.8----30.24- 68.4 71.8 52.0---
2024-04-14 10:20 amWNW 5.8 9.7 2.6 86.0 NE30.24- 68.4 71.8 52.5---
2024-04-14 10:10 am NW 7.8 9.7 2.6-6.0 NE30.24- 68.4 71.8 53.1---
2024-04-14 10:00 am NW 7.8 9.7----30.24+0.04 68.5 71.8 52.7---
2024-04-14 09:50 am NW 7.8 9.7 2.6 86.2 NE30.24- 68.5 71.8 53.1---
2024-04-14 09:40 am NW 7.8 9.7----30.24- 68.5 71.8 54.3---
2024-04-14 09:30 amWNW 7.8 9.7----30.23- 68.9 71.8 54.0---
2024-04-14 09:20 am NW 7.8 9.7 2.6 86.4 NE30.23- 68.9 71.6 54.3---
2024-04-14 09:10 am NW 7.8 9.7 2.6-6.4 NE30.23- 69.1 71.6 54.0---
2024-04-14 09:00 am NW 7.8 9.7----30.23+0.04 69.1 71.6 53.6---
2024-04-14 08:50 am NW 7.8 9.7 2.6 86.3 NE30.23- 69.3 71.6 53.6---
2024-04-14 08:40 am NW 5.8 7.8----30.22- 69.4 71.6 54.3---
2024-04-14 08:30 am NW 5.8 7.8----30.22- 69.6 71.6 53.6---
2024-04-14 08:20 am NW 5.8 7.8 2.6 76.3 NE30.22- 69.6 71.6 53.1---
2024-04-14 08:10 amWNW 5.8 7.8 2.6-6.3 NE30.21- 69.3 71.6 53.2---
2024-04-14 08:00 amWNW 5.8 7.8----30.22+0.04 69.1 71.6 54.0---
2024-04-14 07:50 amWNW 5.8 7.8 2.6 86.4 NE30.21- 68.9 71.6 55.0---
2024-04-14 07:40 amWNW 5.8 7.8----30.21- 69.3 71.6 55.6---
2024-04-14 07:30 am W 5.8 7.8----30.21- 69.3 71.6 54.0---
2024-04-14 07:20 am W 5.8 5.8 2.6 86.4ENE30.20- 69.3 71.6 53.8---
2024-04-14 07:10 am W 3.9 5.8 2.6-6.4ENE30.20- 69.3 71.6 54.0---
2024-04-14 07:00 am W 3.9 5.8----30.20+0.02 69.1 71.6 52.9---
2024-04-14 06:50 am W 3.9 5.8 2.6 86.3 NE30.19- 69.1 71.6 52.9---
2024-04-14 06:40 am W 3.9 5.8----30.19- 69.1 71.6 52.5---
2024-04-14 06:30 am W 3.9 5.8----30.19- 69.1 71.6 52.9---
2024-04-14 06:20 am W 3.9 5.8 3.0 86.5 NE30.19- 69.1 71.6 53.8---
2024-04-14 06:10 am W 3.9 5.8----30.19- 69.1 71.6 53.2---
2024-04-14 06:00 am W 3.9 5.8----30.19+0.00 69.1 71.6 51.6---
2024-04-14 05:50 am W 3.9 5.8 2.6 86.2 NE30.18- 69.1- 52.2---
2024-04-14 05:40 am W 3.9 5.8----30.18- 68.9 71.6 52.9---
2024-04-14 05:30 am W 3.9 5.8----30.18- 68.9 71.6 53.8---
2024-04-14 05:20 am W 3.9 5.8 2.6 86.1 NE30.17- 68.9 71.6 53.1---
2024-04-14 05:10 am W 3.9 5.8 2.6-6.1 NE30.17- 69.1 71.6 52.9---
2024-04-14 05:00 am W 3.9 5.8----30.17-0.01 69.1 71.6 52.9---
2024-04-14 04:50 am W 3.9 5.8 3.0 86.3 NE30.17- 69.1 71.6 53.6---
2024-04-14 04:40 am W 3.9 5.8----30.17- 68.9 71.6 53.4---
2024-04-14 04:30 am W 3.9 5.8----30.17- 68.9 71.6 54.0---
2024-04-14 04:20 am W 3.9 5.8 2.6 86.1 NE30.17- 69.1 71.6 54.1---
2024-04-14 04:10 am W 3.9 3.9 2.6-6.1 NE30.18- 69.1 71.4 53.6---
2024-04-14 04:00 am W 1.9 3.9----30.17-0.03 69.1 71.4 53.1---
2024-04-14 03:50 am W 1.9 3.9 2.6 86.2ENE30.17- 69.1 71.4 52.7---
2024-04-14 03:40 am W 1.9 3.9----30.17- 69.1 71.2 52.5---
2024-04-14 03:30 am W 3.9 3.9----30.17- 69.3 71.2 53.1---
2024-04-14 03:20 am W 3.9 3.9 3.0 86.2NNE30.18- 69.3 71.2 52.3---
2024-04-14 03:10 amWSW 3.9 3.9 3.0-6.2NNE30.18- 69.4 71.2 52.5---
2024-04-14 03:00 amWSW 3.9 5.8----30.18-0.03 69.4 71.2 52.7---
2024-04-14 02:50 amWSW 3.9 3.9 3.0 86.2 NE30.18- 69.4 71.2 52.0---
2024-04-14 02:40 amWSW 3.9 5.8----30.19- 69.6 71.2 52.3---
2024-04-14 02:30 amWSW 3.9 5.8----30.18- 69.6 71.2 51.8---
2024-04-14 02:20 amWSW 3.9 3.9 3.0 86.1NNE30.19- 69.6 71.2 51.4---
2024-04-14 02:10 amWSW 1.9 3.9 3.0-6.1NNE30.19- 69.6 71.2 51.1---
2024-04-14 02:00 am W 1.9 1.9----30.19-0.02 69.8 71.2 50.9---
2024-04-14 01:50 am W 1.9 1.9 3.0 86.0NNE30.19- 69.8 71.2 50.2---

Detailed Wave Summary
for 41009 as of (2:10 am EDT)
0610 GMT on 04/15/2024:

These wave data are displayed in rounded times.

     

Click on the graph icon in the table below to see a time series plot of the last five days of that observation.

5-day plot - Significant Wave Height Significant Wave Height (WVHT): 2.0 ft
5-day plot - Swell Height Swell Height (SwH): 1.6 ft
5-day plot - Swell Period Swell Period (SwP): 9.1 sec
5-day plot - Swell Direction Swell Direction (SwD): E
5-day plot - Wind Wave Height Wind Wave Height (WWH): 1.0 ft
5-day plot - Wind Wave Period Wind Wave Period (WWP): 2.5 sec
5-day plot - Wind Wave Direction Wind Wave Direction (WWD): SE
5-day plot - Average Wave Period Average Wave Period (APD): 5.0 sec
Previous observations
TIME
(EDT)
5-day plot - Wave Height
WVHT
ft
5-day plot - Swell Height
SwH
ft
5-day plot - Swell Period
SwP
sec
5-day plot - Swell Direction
SwD
 
5-day plot - Wind Wave Height
WWH
ft
5-day plot - Wind Wave Period
WWP
sec
5-day plot - Wind Wave Direction
WWD
 
5-day plot - Wave Steepness
STEEPNESS
 
5-day plot - Average Wave Period
APD
sec
2024-04-15 01:40 am 2.0 1.6 12.1ENE 1.0 4.8 ENE N/A 4.9
2024-04-15 01:10 am 2.0 1.6 7.7 E 1.0 2.6 ESE N/A 4.8
2024-04-15 12:40 am 2.0 1.6 8.3 E 1.0 2.7 ESE N/A 4.8
2024-04-15 12:10 am 2.0 2.0 12.1ENE 1.0 3.2 E N/A 5.0
2024-04-14 11:40 pm 2.0 1.6 7.7 E 1.0 4.8 NE N/A 4.8
2024-04-14 11:10 pm 2.0 2.0 8.3ENE 1.0 4.0 ENE N/A 5.4
2024-04-14 10:40 pm 2.3 2.0 12.1ENE 1.0 4.2 ENE N/A 5.7
2024-04-14 10:10 pm 2.3 2.0 9.1ESE 0.7 3.3 E N/A 5.6
2024-04-14 09:40 pm 2.3 2.0 8.3 E 0.7 3.6 E N/A 5.4
2024-04-14 09:10 pm 2.3 2.3 7.1 E 1.0 3.6 E N/A 5.4
2024-04-14 08:40 pm 2.3 2.0 5.6 NE 1.0 4.0 ENE N/A 5.3
2024-04-14 08:10 pm 2.3 2.3 7.7 E 1.0 3.0 E N/A 5.5
2024-04-14 07:40 pm 2.6 2.3 8.3 E 0.7 2.9 ENE N/A 5.6
2024-04-14 07:10 pm 2.3 2.3 12.1 E 1.0 4.0 E N/A 5.8
2024-04-14 06:40 pm 2.3 2.3 8.3 E 0.7 3.8 ENE N/A 5.6
2024-04-14 06:10 pm 2.6 2.6 7.1ENE 0.7 3.7 ENE AVERAGE 5.9
2024-04-14 05:40 pm 2.6 2.6 12.9 E 0.7 3.7 E SWELL 5.9
2024-04-14 05:10 pm 2.6 2.6 6.2 NE 0.7 3.3 E N/A 6.0
2024-04-14 04:40 pm 2.6 2.3 6.2 NE 0.7 3.7 ENE N/A 5.9
2024-04-14 04:10 pm 2.6 2.6 6.7 NE 0.7 3.1 NE N/A 6.1
2024-04-14 03:40 pm 2.6 2.3 7.1 NE 0.7 3.8 ENE N/A 6.1
2024-04-14 03:10 pm 2.6 2.6 7.7 NE 0.7 4.0 NE SWELL 6.0
2024-04-14 02:40 pm 2.3 2.3 7.1ENE 0.7 3.7 ENE N/A 5.9
2024-04-14 02:10 pm 2.3 2.3 6.7 NE 0.7 2.9 NNW N/A 5.8
2024-04-14 01:40 pm 2.3 2.3 7.7ENE 0.7 2.7 WNW N/A 5.8
2024-04-14 01:10 pm 2.3 2.3 7.1 NE 0.7 4.0 NE N/A 5.9
2024-04-14 12:40 pm 2.6 2.6 6.7 N 0.7 4.0 NNE AVERAGE 6.1
2024-04-14 12:10 pm 2.3 2.3 7.1 NE 0.7 2.4 WNW N/A 5.6
2024-04-14 11:40 am 2.3 2.3 12.1ENE 0.7 3.8 NE N/A 5.6
2024-04-14 11:10 am 2.3 2.3 7.1ENE 0.7 3.8 ENE N/A 5.6
2024-04-14 10:40 am 2.6 2.6 7.7ENE 0.7 3.6 ENE SWELL 5.9
2024-04-14 10:10 am 2.6 2.6 7.7 NE 0.7 3.8 ENE SWELL 6.0
2024-04-14 09:40 am 2.6 2.3 7.7 NE 0.7 3.7 NE N/A 6.2
2024-04-14 09:10 am 2.6 2.3 7.7 NE 0.7 3.6 ENE N/A 6.4
2024-04-14 08:40 am 2.6 2.6 7.7 NE 0.7 3.4 ENE N/A 6.3
2024-04-14 08:10 am 2.6 2.6 7.1 NE 0.7 4.0 NNE N/A 6.3
2024-04-14 07:40 am 2.6 2.6 7.7 NE 0.7 3.6 NE SWELL 6.4
2024-04-14 07:10 am 2.6 2.6 8.3ENE 0.7 3.6 ENE SWELL 6.4
2024-04-14 06:40 am 2.6 2.6 7.7 NE 0.7 3.8 NE SWELL 6.3
2024-04-14 06:10 am 3.0 3.0 7.7 NE 0.7 3.7 NE AVERAGE 6.5
2024-04-14 05:40 am 2.6 2.6 8.3 NE 0.7 3.8 NE SWELL 6.2
2024-04-14 05:10 am 2.6 2.6 7.7 NE 0.7 4.0 NE SWELL 6.1
2024-04-14 04:40 am 3.0 2.6 7.7 NE 0.7 3.7 NE AVERAGE 6.3
2024-04-14 04:10 am 2.6 2.6 7.7 NE 0.7 3.6 NE SWELL 6.1
2024-04-14 03:40 am 2.6 2.6 7.7ENE 0.7 3.6 NE N/A 6.2
2024-04-14 03:10 am 3.0 2.6 7.7NNE 0.7 3.7 NNE AVERAGE 6.2
2024-04-14 02:40 am 3.0 2.6 7.7 NE 1.0 4.0 NNE AVERAGE 6.2
2024-04-14 02:10 am 3.0 2.6 8.3NNE 1.0 4.0 NE SWELL 6.1

Plot of wave energy versus frequency (and period)